Total_Precipitation_Accumulation
0.01 0.03 0.12 0.15 0.18 0.13 0.09 0.07 0.05 0.04 0.05 0.06 0.07 0.08 0.08 0.08 0.08 0.08 0.09 0.11 0.13 0.16 0.21 0.24 0.29 0.41 0.40 0.25 0.14 0.05 0.02 0.01 0.01 0.01 0.01 0.02 0.04 0.06 0.05 0.05 0.06 0.09 0.12
0.01 0.03 0.09 0.12 0.17 0.14 0.11 0.08 0.04 0.03 0.04 0.06 0.07 0.08 0.09 0.09 0.08 0.10 0.12 0.14 0.15 0.20 0.23 0.26 0.31 0.36 0.30 0.21 0.13 0.04 0.01 0.01 0.00 0.00 0.00 0.01 0.02 0.04 0.03 0.04 0.06 0.10 0.13
0.01 0.03 0.07 0.10 0.14 0.14 0.10 0.07 0.03 0.03 0.04 0.05 0.07 0.09 0.11 0.10 0.10 0.11 0.12 0.15 0.17 0.19 0.22 0.27 0.27 0.25 0.21 0.18 0.11 0.04 0.01 0.01 0.00 0.01 0.01 0.02 0.04 0.07 0.06 0.07 0.09 0.11 0.13
0.00 0.02 0.05 0.08 0.12 0.12 0.09 0.06 0.04 0.03 0.04 0.05 0.06 0.10 0.13 0.11 0.11 0.12 0.12 0.12 0.13 0.14 0.16 0.18 0.14 0.10 0.07 0.06 0.06 0.03 0.01 0.01 0.00 0.01 0.02 0.03 0.05 0.11 0.11 0.10 0.11 0.13 0.14
0.01 0.02 0.05 0.07 0.10 0.11 0.09 0.07 0.05 0.04 0.04 0.04 0.05 0.09 0.13 0.14 0.12 0.10 0.09 0.08 0.07 0.08 0.09 0.08 0.05 0.02 0.02 0.02 0.02 0.02 0.01 0.01 0.00 0.01 0.02 0.04 0.06 0.13 0.13 0.12 0.13 0.14 0.16
0.01 0.02 0.06 0.07 0.09 0.09 0.08 0.06 0.05 0.04 0.04 0.03 0.05 0.07 0.11 0.15 0.14 0.09 0.05 0.04 0.03 0.04 0.04 0.04 0.01 0.01 0.01 0.00 0.00 0.01 0.01 0.01 0.00 0.01 0.02 0.04 0.06 0.13 0.13 0.12 0.12 0.13 0.15
0.02 0.03 0.07 0.09 0.09 0.08 0.08 0.07 0.06 0.04 0.03 0.03 0.04 0.05 0.08 0.13 0.13 0.08 0.03 0.02 0.02 0.02 0.03 0.02 0.01 0.01 0.00 0.00 0.00 0.01 0.01 0.01 0.01 0.01 0.03 0.03 0.06 0.13 0.13 0.11 0.12 0.12 0.13
0.02 0.04 0.08 0.11 0.10 0.09 0.08 0.07 0.05 0.04 0.03 0.03 0.03 0.04 0.06 0.08 0.09 0.07 0.03 0.02 0.02 0.02 0.02 0.01 0.01 0.01 0.01 0.01 0.01 0.01 0.01 0.00 0.01 0.01 0.02 0.02 0.05 0.09 0.09 0.09 0.10 0.11 0.11
0.04 0.05 0.09 0.12 0.12 0.11 0.09 0.07 0.06 0.04 0.03 0.03 0.03 0.04 0.04 0.03 0.05 0.05 0.03 0.03 0.03 0.02 0.02 0.02 0.02 0.02 0.02 0.01 0.01 0.01 0.00 0.00 0.00 0.01 0.01 0.02 0.04 0.07 0.08 0.09 0.11 0.13 0.14
0.09 0.08 0.08 0.10 0.11 0.11 0.09 0.07 0.05 0.04 0.03 0.03 0.02 0.02 0.01 0.01 0.02 0.03 0.02 0.02 0.02 0.02 0.02 0.02 0.02 0.02 0.02 0.02 0.01 0.00 0.00 0.00 0.00 0.00 0.01 0.01 0.03 0.06 0.06 0.09 0.11 0.13 0.15
0.15 0.12 0.09 0.09 0.10 0.09 0.08 0.06 0.05 0.03 0.02 0.02 0.02 0.01 0.00 0.01 0.01 0.01 0.01 0.01 0.01 0.01 0.01 0.01 0.02 0.02 0.01 0.01 0.00 0.00 0.00 0.00 0.00 0.00 0.00 0.01 0.03 0.05 0.05 0.07 0.09 0.10 0.10
0.16 0.14 0.10 0.08 0.08 0.08 0.07 0.06 0.05 0.03 0.02 0.01 0.01 0.01 0.01 0.01 0.01 0.01 0.00 0.00 0.01 0.01 0.01 0.01 0.01 0.01 0.00 0.00 0.00 0.00 0.00 0.00 0.00 0.00 0.00 0.01 0.03 0.04 0.04 0.05 0.05 0.06 0.07
0.15 0.13 0.11 0.09 0.08 0.07 0.06 0.05 0.04 0.03 0.02 0.01 0.01 0.01 0.01 0.01 0.01 0.00 0.00 0.00 0.00 0.00 0.01 0.00 0.00 0.00 0.00 0.00 0.00 0.00 0.00 0.00 0.00 0.00 0.00 0.01 0.02 0.03 0.04 0.04 0.04 0.05 0.06
0.26 0.17 0.13 0.11 0.09 0.07 0.05 0.03 0.03 0.02 0.02 0.01 0.01 0.00 0.00 0.00 0.00 0.00 0.00 0.00 0.00 0.00 0.01 0.00 0.00 0.00 0.00 0.00 0.00 0.00 0.00 0.00 0.00 0.00 0.00 0.00 0.01 0.02 0.03 0.04 0.04 0.05 0.06
0.39 0.28 0.22 0.18 0.13 0.08 0.06 0.03 0.02 0.02 0.01 0.01 0.01 0.00 0.00 0.00 0.00 0.00 0.00 0.00 0.00 0.00 0.00 0.00 0.00 0.00 0.00 0.00 0.00 0.00 0.00 0.00 0.00 0.00 0.00 0.00 0.00 0.01 0.02 0.03 0.04 0.05 0.08
0.47 0.42 0.32 0.26 0.22 0.15 0.09 0.04 0.03 0.02 0.02 0.02 0.01 0.01 0.01 0.00 0.00 0.00 0.00 0.00 0.00 0.00 0.00 0.00 0.00 0.00 0.00 0.00 0.00 0.00 0.00 0.00 0.00 0.00 0.00 0.00 0.00 0.00 0.01 0.02 0.04 0.07 0.10
0.49 0.54 0.47 0.39 0.34 0.22 0.15 0.10 0.06 0.04 0.03 0.03 0.03 0.02 0.01 0.01 0.00 0.00 0.00 0.00 0.00 0.00 0.00 0.00 0.00 0.00 0.00 0.00 0.00 0.00 0.00 0.00 0.00 0.00 0.00 0.00 0.00 0.00 0.00 0.02 0.04 0.07 0.10
0.53 0.57 0.61 0.51 0.42 0.34 0.25 0.18 0.13 0.10 0.09 0.08 0.08 0.06 0.04 0.03 0.02 0.02 0.01 0.00 0.00 0.00 0.00 0.00 0.00 0.00 0.00 0.00 0.00 0.00 0.00 0.00 0.00 0.00 0.00 0.00 0.00 0.00 0.00 0.01 0.03 0.06 0.08
0.51 0.55 0.64 0.58 0.47 0.42 0.42 0.39 0.32 0.26 0.19 0.17 0.14 0.10 0.09 0.08 0.06 0.04 0.02 0.02 0.01 0.01 0.01 0.01 0.01 0.01 0.00 0.00 0.00 0.00 0.00 0.00 0.00 0.00 0.00 0.00 0.00 0.00 0.01 0.01 0.01 0.02 0.04
0.50 0.58 0.64 0.71 0.67 0.65 0.71 0.67 0.55 0.44 0.33 0.30 0.25 0.21 0.19 0.15 0.13 0.10 0.08 0.06 0.04 0.03 0.02 0.02 0.02 0.01 0.01 0.01 0.01 0.01 0.00 0.00 0.00 0.00 0.01 0.01 0.01 0.01 0.01 0.01 0.01 0.01 0.02
0.46 0.52 0.59 0.67 0.75 0.72 0.65 0.59 0.49 0.42 0.45 0.46 0.43 0.41 0.35 0.29 0.24 0.18 0.14 0.12 0.08 0.06 0.05 0.05 0.04 0.03 0.03 0.02 0.02 0.02 0.00 0.00 0.01 0.01 0.01 0.01 0.01 0.02 0.02 0.02 0.02 0.02 0.02
0.36 0.39 0.49 0.57 0.68 0.70 0.61 0.63 0.63 0.67 0.69 0.67 0.63 0.52 0.46 0.41 0.35 0.27 0.20 0.18 0.16 0.12 0.09 0.09 0.10 0.08 0.06 0.06 0.07 0.09 0.05 0.02 0.01 0.02 0.02 0.02 0.02 0.03 0.03 0.03 0.03 0.03 0.04
0.26 0.31 0.33 0.42 0.54 0.62 0.72 0.87 0.92 0.89 0.75 0.64 0.55 0.53 0.52 0.51 0.48 0.43 0.36 0.32 0.27 0.23 0.18 0.19 0.19 0.18 0.19 0.20 0.19 0.23 0.21 0.11 0.07 0.03 0.03 0.03 0.03 0.03 0.03 0.03 0.04 0.05 0.05
0.16 0.24 0.30 0.36 0.45 0.53 0.68 0.75 0.76 0.68 0.56 0.50 0.57 0.62 0.63 0.60 0.58 0.54 0.50 0.46 0.41 0.36 0.33 0.34 0.36 0.38 0.38 0.34 0.29 0.27 0.28 0.25 0.26 0.17 0.06 0.04 0.05 0.04 0.05 0.06 0.06 0.06 0.07
0.11 0.17 0.23 0.32 0.40 0.50 0.58 0.63 0.71 0.66 0.58 0.60 0.63 0.59 0.57 0.57 0.57 0.57 0.55 0.54 0.53 0.51 0.51 0.53 0.52 0.52 0.50 0.46 0.41 0.38 0.38 0.35 0.32 0.34 0.21 0.10 0.10 0.11 0.11 0.10 0.09 0.11 0.12
0.11 0.13 0.18 0.24 0.30 0.37 0.45 0.53 0.57 0.62 0.66 0.67 0.63 0.60 0.58 0.60 0.59 0.56 0.57 0.57 0.60 0.58 0.57 0.59 0.61 0.62 0.62 0.61 0.59 0.53 0.52 0.47 0.42 0.47 0.44 0.29 0.25 0.21 0.19 0.19 0.20 0.21 0.21